{"data":{"norad_id":62427,"epoch":"2026-09-21T06:48:19.958112Z","epoch_age_seconds":106869,"freshness":"FRESH","line1":"1 62427U 24249U   26264.28356433  .00009651  00000+0  35957-3 0  9998","line2":"2 62427  42.9998 289.7721 0000913 242.5580 117.5179 15.27599805 97726","mean_motion":15.27599805,"eccentricity":9.13e-5,"inclination_deg":42.9998,"raan_deg":289.7721,"arg_perigee_deg":242.558,"mean_anomaly_deg":117.5179,"bstar":0.00035957,"rev_number":9772,"period_min":94.265526565709,"perigee_km":482.36337250932,"apogee_km":483.61621426179,"semimajor_km":6861.1267933856,"source":"CELESTRAK","updated_at":"2026-09-22T09:00:49.579032Z"}}